Location: Newark
(29.9790°N, 31.1340°E)
Time: 20:59:38
(UTC+00:00)

Tiros 1 - Pass Details

Date: 20 January 2020
Orbit: 631 x 664 km, 48.4° (Epoch: 23 February)

Event Time Altitude Azimuth Distance (km) Brightness Sun altitude
Rises 17:23:44 0° 323° (NW) 2,985 10.9 -26.2°
Reaches altitude 10° 17:26:45 10° 342° (NNW) 2,075 9.8 -26.8°
Enters shadow 17:27:20 12° 348° (NNW) 1,934 9.6 -26.9°
